TimeCDT,TemperatureF,Dew PointF,Humidity,Sea Level PressureIn,VisibilityMPH,Wind Direction,Wind SpeedMPH,Gust SpeedMPH,PrecipitationIn,Events,Conditions,WindDirDegrees,DateUTC
12:15 AM,71.6,62.6,73,30.10,10.0,ESE,4.6,-,N/A,,Clear,120,2013-06-25 05:15:00
12:35 AM,71.6,64.4,78,30.10,10.0,East,5.8,-,N/A,,Clear,90,2013-06-25 05:35:00
12:55 AM,69.8,64.4,83,30.10,10.0,Calm,Calm,-,N/A,,Clear,0,2013-06-25 05:55:00
1:15 AM,69.8,64.4,83,30.11,10.0,Calm,Calm,-,N/A,,Clear,0,2013-06-25 06:15:00
1:35 AM,71.6,62.6,73,30.11,10.0,Calm,Calm,-,N/A,,Clear,0,2013-06-25 06:35:00
1:55 AM,71.6,60.8,69,30.11,10.0,South,3.5,-,N/A,,Clear,170,2013-06-25 06:55:00
2:15 AM,69.8,60.8,73,30.12,10.0,Calm,Calm,-,N/A,,Clear,0,2013-06-25 07:15:00
2:35 AM,69.8,60.8,73,30.12,10.0,WNW,4.6,-,N/A,,Clear,300,2013-06-25 07:35:00
2:55 AM,69.8,60.8,73,30.12,10.0,WNW,6.9,-,N/A,,Clear,290,2013-06-25 07:55:00
3:15 AM,69.8,60.8,73,30.12,10.0,WNW,6.9,-,N/A,,Clear,290,2013-06-25 08:15:00
3:35 AM,69.8,60.8,73,30.12,10.0,West,6.9,-,N/A,,Clear,270,2013-06-25 08:35:00
3:55 AM,68.0,60.8,78,30.12,10.0,West,4.6,-,N/A,,Clear,280,2013-06-25 08:55:00
4:15 AM,68.0,60.8,78,30.12,10.0,Calm,Calm,-,N/A,,Clear,0,2013-06-25 09:15:00
4:35 AM,68.0,60.8,78,30.12,10.0,Calm,Calm,-,N/A,,Clear,0,2013-06-25 09:35:00
4:55 AM,66.2,60.8,83,30.13,10.0,Calm,Calm,-,N/A,,Clear,0,2013-06-25 09:55:00
5:15 AM,66.2,60.8,83,30.12,10.0,East,4.6,-,N/A,,Clear,100,2013-06-25 10:15:00
5:35 AM,66.2,60.8,83,30.12,10.0,Calm,Calm,-,N/A,,Clear,0,2013-06-25 10:35:00
5:55 AM,66.2,60.8,83,30.12,10.0,Calm,Calm,-,N/A,,Clear,0,2013-06-25 10:55:00
6:15 AM,66.2,60.8,83,30.12,10.0,Calm,Calm,-,N/A,,Clear,0,2013-06-25 11:15:00
6:35 AM,64.4,60.8,88,30.12,10.0,Calm,Calm,-,N/A,,Clear,0,2013-06-25 11:35:00
6:55 AM,64.4,60.8,88,30.13,10.0,NNE,3.5,-,N/A,,Clear,20,2013-06-25 11:55:00
7:15 AM,64.4,60.8,88,30.13,10.0,Calm,Calm,-,N/A,,Clear,0,2013-06-25 12:15:00
7:35 AM,66.2,62.6,88,30.14,10.0,Calm,Calm,-,N/A,,Clear,0,2013-06-25 12:35:00
7:55 AM,68.0,62.6,83,30.14,10.0,Calm,Calm,-,N/A,,Clear,0,2013-06-25 12:55:00
8:15 AM,69.8,62.6,78,30.15,10.0,Calm,Calm,-,N/A,,Clear,0,2013-06-25 13:15:00
8:35 AM,71.6,62.6,73,30.15,10.0,Calm,Calm,-,N/A,,Clear,0,2013-06-25 13:35:00
8:55 AM,73.4,62.6,69,30.16,10.0,SSE,4.6,-,N/A,,Clear,160,2013-06-25 13:55:00
9:15 AM,73.4,62.6,69,30.16,10.0,SE,5.8,-,N/A,,Clear,130,2013-06-25 14:15:00
9:35 AM,75.2,62.6,65,30.16,10.0,South,6.9,-,N/A,,Clear,190,2013-06-25 14:35:00
9:55 AM,77.0,60.8,57,30.16,10.0,South,6.9,-,N/A,,Clear,190,2013-06-25 14:55:00
10:15 AM,78.8,60.8,54,30.17,10.0,SSW,5.8,-,N/A,,Clear,200,2013-06-25 15:15:00
10:35 AM,78.8,62.6,57,30.17,10.0,South,4.6,-,N/A,,Clear,190,2013-06-25 15:35:00
10:55 AM,80.6,62.6,54,30.16,10.0,SSE,3.5,-,N/A,,Clear,160,2013-06-25 15:55:00
11:15 AM,82.4,62.6,51,30.16,10.0,Calm,Calm,-,N/A,,Clear,0,2013-06-25 16:15:00
11:35 AM,84.2,62.6,48,30.16,10.0,SSW,5.8,-,N/A,,Clear,200,2013-06-25 16:35:00
11:55 AM,84.2,60.8,45,30.16,10.0,South,6.9,-,N/A,,Clear,180,2013-06-25 16:55:00
12:15 PM,86.0,60.8,43,30.16,10.0,SSW,4.6,-,N/A,,Clear,210,2013-06-25 17:15:00
12:35 PM,86.0,59.0,40,30.16,10.0,Calm,Calm,-,N/A,,Clear,0,2013-06-25 17:35:00
12:55 PM,89.6,60.8,38,30.15,10.0,SSE,6.9,-,N/A,,Clear,160,2013-06-25 17:55:00
1:15 PM,89.6,59.0,36,30.15,10.0,SSW,5.8,-,N/A,,Clear,200,2013-06-25 18:15:00
1:35 PM,89.6,57.2,33,30.14,10.0,SSE,9.2,-,N/A,,Clear,150,2013-06-25 18:35:00
1:55 PM,89.6,57.2,33,30.14,10.0,South,10.4,-,N/A,,Clear,190,2013-06-25 18:55:00
2:15 PM,89.6,57.2,33,30.14,10.0,SE,8.1,-,N/A,,Clear,140,2013-06-25 19:15:00
2:35 PM,91.4,55.4,29,30.13,10.0,SSW,8.1,-,N/A,,Clear,200,2013-06-25 19:35:00
2:55 PM,91.4,55.4,29,30.13,10.0,South,4.6,-,N/A,,Clear,190,2013-06-25 19:55:00
3:15 PM,91.4,55.4,29,30.13,10.0,SSW,10.4,-,N/A,,Clear,200,2013-06-25 20:15:00
3:35 PM,89.6,53.6,29,30.12,10.0,SSW,8.1,-,N/A,,Clear,210,2013-06-25 20:35:00
3:55 PM,91.4,51.8,26,30.12,10.0,West,3.5,-,N/A,Thunderstorm,Clear,270,2013-06-25 20:55:00
4:15 PM,91.4,51.8,26,30.11,10.0,South,6.9,-,N/A,,Clear,180,2013-06-25 21:15:00
4:35 PM,75.2,55.4,50,30.14,5.0,West,13.8,48.3,0.18,Thunderstorm,Thunderstorm,270,2013-06-25 21:35:00
4:55 PM,75.2,57.2,53,30.11,10.0,WSW,4.6,19.6,0.45,Thunderstorm,Overcast,240,2013-06-25 21:55:00
5:15 PM,78.8,60.8,54,30.11,10.0,NNE,6.9,-,0.03,Thunderstorm,Thunderstorm,30,2013-06-25 22:15:00
5:35 PM,80.6,64.4,58,30.10,10.0,NE,8.1,-,0.04,Thunderstorm,Thunderstorm,50,2013-06-25 22:35:00
5:55 PM,80.6,66.2,61,30.10,10.0,North,6.9,-,0.04,,Partly Cloudy,360,2013-06-25 22:55:00
6:15 PM,82.4,66.2,58,30.09,10.0,North,4.6,-,N/A,Thunderstorm,Clear,360,2013-06-25 23:15:00
6:35 PM,82.4,66.2,58,30.07,10.0,ENE,5.8,-,N/A,,Clear,70,2013-06-25 23:35:00
6:55 PM,82.4,64.4,54,30.07,10.0,East,4.6,-,N/A,,Clear,80,2013-06-25 23:55:00
7:15 PM,84.2,64.4,51,30.06,10.0,ESE,8.1,-,N/A,,Clear,110,2013-06-26 00:15:00
7:35 PM,84.2,64.4,51,30.07,10.0,East,4.6,-,N/A,,Clear,100,2013-06-26 00:35:00
7:55 PM,82.4,68.0,62,30.07,10.0,ENE,4.6,-,N/A,,Clear,70,2013-06-26 00:55:00
8:15 PM,82.4,66.2,58,30.08,10.0,ESE,4.6,-,N/A,,Clear,110,2013-06-26 01:15:00
8:35 PM,80.6,68.0,65,30.08,10.0,ENE,5.8,-,N/A,,Clear,70,2013-06-26 01:35:00
8:55 PM,78.8,66.2,65,30.08,10.0,NE,5.8,-,N/A,,Clear,50,2013-06-26 01:55:00
9:15 PM,78.8,66.2,65,30.08,10.0,ENE,4.6,-,N/A,,Clear,70,2013-06-26 02:15:00
9:35 PM,78.8,64.4,61,30.08,10.0,East,4.6,-,N/A,,Clear,80,2013-06-26 02:35:00
9:55 PM,77.0,62.6,61,30.08,10.0,ESE,6.9,-,N/A,,Clear,110,2013-06-26 02:55:00
10:15 PM,75.2,62.6,65,30.08,10.0,SSE,5.8,-,N/A,,Clear,150,2013-06-26 03:15:00
10:35 PM,75.2,62.6,65,30.09,10.0,Calm,Calm,-,N/A,,Clear,0,2013-06-26 03:35:00
10:55 PM,73.4,62.6,69,30.11,10.0,East,5.8,-,N/A,,Clear,80,2013-06-26 03:55:00
11:15 PM,73.4,62.6,69,30.12,10.0,SE,3.5,-,N/A,,Clear,140,2013-06-26 04:15:00
11:35 PM,73.4,62.6,69,30.13,10.0,South,4.6,-,N/A,,Clear,170,2013-06-26 04:35:00
11:55 PM,75.2,62.6,65,30.13,10.0,South,5.8,-,N/A,,Clear,170,2013-06-26 04:55:00